Year,Month,Day,Hour,Minute,Value (Times are PST for temperature in C)
2018,08,09,00,00,26.50
2018,08,09,00,01,26.50
2018,08,09,00,02,26.50
2018,08,09,00,03,26.50
2018,08,09,00,04,26.40
2018,08,09,00,05,26.40
2018,08,09,00,06,26.40
2018,08,09,00,07,26.30
2018,08,09,00,08,26.30
2018,08,09,00,09,26.30
2018,08,09,00,10,26.30
2018,08,09,00,11,26.20
2018,08,09,00,12,26.20
2018,08,09,00,13,26.20
2018,08,09,00,14,26.20
2018,08,09,00,15,26.20
2018,08,09,00,16,26.20
2018,08,09,00,17,26.10
2018,08,09,00,18,26.10
2018,08,09,00,19,26.00
2018,08,09,00,20,26.00
2018,08,09,00,21,25.90
2018,08,09,00,22,25.90
2018,08,09,00,23,25.90
2018,08,09,00,24,25.90
2018,08,09,00,25,25.90
2018,08,09,00,26,25.80
2018,08,09,00,27,25.80
2018,08,09,00,28,25.80
2018,08,09,00,29,25.80
2018,08,09,00,30,25.80
2018,08,09,00,31,25.70
2018,08,09,00,32,25.70
2018,08,09,00,33,25.70
2018,08,09,00,34,25.70
2018,08,09,00,35,25.70
2018,08,09,00,36,25.70
2018,08,09,00,37,25.70
2018,08,09,00,38,25.70
2018,08,09,00,39,25.70
2018,08,09,00,40,25.60
2018,08,09,00,41,25.60
2018,08,09,00,42,25.60
2018,08,09,00,43,25.60
2018,08,09,00,44,25.50
2018,08,09,00,45,25.50
2018,08,09,00,46,25.50
2018,08,09,00,47,25.40
2018,08,09,00,48,25.40
2018,08,09,00,49,25.40
2018,08,09,00,50,25.30
2018,08,09,00,51,25.30
2018,08,09,00,52,25.30
2018,08,09,00,53,25.30
2018,08,09,00,54,25.30
2018,08,09,00,55,25.30
2018,08,09,00,56,25.30
2018,08,09,00,57,25.30
2018,08,09,00,58,25.20
2018,08,09,00,59,25.20
2018,08,09,01,00,25.20
2018,08,09,01,01,25.20
2018,08,09,01,02,25.20
2018,08,09,01,03,25.10
2018,08,09,01,04,25.20
2018,08,09,01,05,25.20
2018,08,09,01,06,25.20
2018,08,09,01,07,25.10
2018,08,09,01,08,25.10
2018,08,09,01,09,25.10
2018,08,09,01,10,25.10
2018,08,09,01,11,25.10
2018,08,09,01,12,25.10
2018,08,09,01,13,25.10
2018,08,09,01,14,25.20
2018,08,09,01,15,25.20
2018,08,09,01,16,25.10
2018,08,09,01,17,25.00
2018,08,09,01,18,25.00
2018,08,09,01,19,24.90
2018,08,09,01,20,24.80
2018,08,09,01,21,24.70
2018,08,09,01,22,24.70
2018,08,09,01,23,24.70
2018,08,09,01,24,24.70
2018,08,09,01,25,24.70
2018,08,09,01,26,24.70
2018,08,09,01,27,24.70
2018,08,09,01,28,24.70
2018,08,09,01,29,24.70
2018,08,09,01,30,24.70
2018,08,09,01,31,24.60
2018,08,09,01,32,24.60
2018,08,09,01,33,24.60
2018,08,09,01,34,24.50
2018,08,09,01,35,24.40
2018,08,09,01,36,24.40
2018,08,09,01,37,24.30
2018,08,09,01,38,24.30
2018,08,09,01,39,24.30
2018,08,09,01,40,24.30
2018,08,09,01,41,24.40
2018,08,09,01,42,24.40
2018,08,09,01,43,24.50
2018,08,09,01,44,24.60
2018,08,09,01,45,24.60
2018,08,09,01,46,24.50
2018,08,09,01,47,24.40
2018,08,09,01,48,24.30
2018,08,09,01,49,24.30
2018,08,09,01,50,24.20
2018,08,09,01,51,24.10
2018,08,09,01,52,24.00
2018,08,09,01,53,24.00
2018,08,09,01,54,23.90
2018,08,09,01,55,23.90
2018,08,09,01,56,23.80
2018,08,09,01,57,23.80
2018,08,09,01,58,23.70
2018,08,09,01,59,23.70
2018,08,09,02,00,23.60
2018,08,09,02,01,23.60
2018,08,09,02,02,23.60
2018,08,09,02,03,23.80
2018,08,09,02,04,23.80
2018,08,09,02,05,23.90
2018,08,09,02,06,23.90
2018,08,09,02,07,23.90
2018,08,09,02,08,23.80
2018,08,09,02,09,23.80
2018,08,09,02,10,23.70
2018,08,09,02,11,23.60
2018,08,09,02,12,23.50
2018,08,09,02,13,23.40
2018,08,09,02,14,23.30
2018,08,09,02,15,23.20
2018,08,09,02,16,23.10
2018,08,09,02,17,23.00
2018,08,09,02,18,22.90
2018,08,09,02,19,22.80
2018,08,09,02,20,22.80
2018,08,09,02,21,22.80
2018,08,09,02,22,22.80
2018,08,09,02,23,22.80
2018,08,09,02,24,22.70
2018,08,09,02,25,22.70
2018,08,09,02,26,22.70
2018,08,09,02,27,22.70
2018,08,09,02,28,22.70
2018,08,09,02,29,22.80
2018,08,09,02,30,22.80
2018,08,09,02,31,22.90
2018,08,09,02,32,23.00
2018,08,09,02,33,23.00
2018,08,09,02,34,23.00
2018,08,09,02,35,23.10
2018,08,09,02,36,23.20
2018,08,09,02,37,23.20
2018,08,09,02,38,23.30
2018,08,09,02,39,23.40
2018,08,09,02,40,23.50
2018,08,09,02,41,23.60
2018,08,09,02,42,23.70
2018,08,09,02,43,23.80
2018,08,09,02,44,23.80
2018,08,09,02,45,23.90
2018,08,09,02,46,23.90
2018,08,09,02,47,24.00
2018,08,09,02,48,24.10
2018,08,09,02,49,24.10
2018,08,09,02,50,24.10
2018,08,09,02,51,24.10
2018,08,09,02,52,24.10
2018,08,09,02,53,24.10
2018,08,09,02,54,24.10
2018,08,09,02,55,24.10
2018,08,09,02,56,24.10
2018,08,09,02,57,24.00
2018,08,09,02,58,24.00
2018,08,09,02,59,24.00
2018,08,09,03,00,24.00
2018,08,09,03,01,24.00
2018,08,09,03,02,24.00
2018,08,09,03,03,24.00
2018,08,09,03,04,24.00
2018,08,09,03,05,24.00
2018,08,09,03,06,24.00
2018,08,09,03,07,24.00
2018,08,09,03,08,24.00
2018,08,09,03,09,24.00
2018,08,09,03,10,24.00
2018,08,09,03,11,24.00
2018,08,09,03,12,24.00
2018,08,09,03,13,23.90
2018,08,09,03,14,23.90
2018,08,09,03,15,23.90
2018,08,09,03,16,23.90
2018,08,09,03,17,23.80
2018,08,09,03,18,23.80
2018,08,09,03,19,23.80
2018,08,09,03,20,23.80
2018,08,09,03,21,23.80
2018,08,09,03,22,23.80
2018,08,09,03,23,23.70
2018,08,09,03,24,23.70
2018,08,09,03,25,23.70
2018,08,09,03,26,23.70
2018,08,09,03,27,23.70
2018,08,09,03,28,23.70
2018,08,09,03,29,23.70
2018,08,09,03,30,23.70
2018,08,09,03,31,23.60
2018,08,09,03,32,23.60
2018,08,09,03,33,23.60
2018,08,09,03,34,23.50
2018,08,09,03,35,23.50
2018,08,09,03,36,23.50
2018,08,09,03,37,23.40
2018,08,09,03,38,23.40
2018,08,09,03,39,23.40
2018,08,09,03,40,23.40
2018,08,09,03,41,23.40
2018,08,09,03,42,23.40
2018,08,09,03,43,23.40
2018,08,09,03,44,23.40
2018,08,09,03,45,23.30
2018,08,09,03,46,23.30
2018,08,09,03,47,23.30
2018,08,09,03,48,23.30
2018,08,09,03,49,23.30
2018,08,09,03,50,23.30
2018,08,09,03,51,23.30
2018,08,09,03,52,23.30
2018,08,09,03,53,23.30
2018,08,09,03,54,23.40
2018,08,09,03,55,23.40
2018,08,09,03,56,23.40
2018,08,09,03,57,23.40
2018,08,09,03,58,23.40
2018,08,09,03,59,23.40
2018,08,09,04,00,23.40
2018,08,09,04,01,23.40
2018,08,09,04,02,23.40
2018,08,09,04,03,23.40
2018,08,09,04,04,23.30
2018,08,09,04,05,23.30
2018,08,09,04,06,23.30
2018,08,09,04,07,23.30
2018,08,09,04,08,23.30
2018,08,09,04,09,23.40
2018,08,09,04,10,23.40
2018,08,09,04,11,23.40
2018,08,09,04,12,23.40
2018,08,09,04,13,23.40
2018,08,09,04,14,23.40
2018,08,09,04,15,23.30
2018,08,09,04,16,23.20
2018,08,09,04,17,23.20
2018,08,09,04,18,23.20
2018,08,09,04,19,23.10
2018,08,09,04,20,23.10
2018,08,09,04,21,23.00
2018,08,09,04,22,22.90
2018,08,09,04,23,22.90
2018,08,09,04,24,22.90
2018,08,09,04,25,22.80
2018,08,09,04,26,22.70
2018,08,09,04,27,22.70
2018,08,09,04,28,22.70
2018,08,09,04,29,22.80
2018,08,09,04,30,22.80
2018,08,09,04,31,22.80
2018,08,09,04,32,22.60
2018,08,09,04,33,22.50
2018,08,09,04,34,22.30
2018,08,09,04,35,21.90
2018,08,09,04,36,21.60
2018,08,09,04,37,21.20
2018,08,09,04,38,21.00
2018,08,09,04,39,20.80
2018,08,09,04,40,20.70
2018,08,09,04,41,20.60
2018,08,09,04,42,20.50
2018,08,09,04,43,20.40
2018,08,09,04,44,20.30
2018,08,09,04,45,20.20
2018,08,09,04,46,20.10
2018,08,09,04,47,20.10
2018,08,09,04,48,20.10
2018,08,09,04,49,20.30
2018,08,09,04,50,20.40
2018,08,09,04,51,20.50
2018,08,09,04,52,20.60
2018,08,09,04,53,20.70
2018,08,09,04,54,20.70
2018,08,09,04,55,20.80
2018,08,09,04,56,20.80
2018,08,09,04,57,20.90
2018,08,09,04,58,20.90
2018,08,09,04,59,20.90
2018,08,09,05,00,20.90
2018,08,09,05,01,20.90
2018,08,09,05,02,20.90
2018,08,09,05,03,20.90
2018,08,09,05,04,21.00
2018,08,09,05,05,21.00
2018,08,09,05,06,21.10
2018,08,09,05,07,21.10
2018,08,09,05,08,21.10
2018,08,09,05,09,21.10
2018,08,09,05,10,21.20
2018,08,09,05,11,21.20
2018,08,09,05,12,21.20
2018,08,09,05,13,21.30
2018,08,09,05,14,21.30
2018,08,09,05,15,21.30
2018,08,09,05,16,21.30
2018,08,09,05,17,21.20
2018,08,09,05,18,21.00
2018,08,09,05,19,20.80
2018,08,09,05,20,20.60
2018,08,09,05,21,20.40
2018,08,09,05,22,20.20
2018,08,09,05,23,20.10
2018,08,09,05,24,20.00
2018,08,09,05,25,19.80
2018,08,09,05,26,19.60
2018,08,09,05,27,19.50
2018,08,09,05,28,19.30
2018,08,09,05,29,19.10
2018,08,09,05,30,19.00
2018,08,09,05,31,18.90
2018,08,09,05,32,18.80
2018,08,09,05,33,18.70
2018,08,09,05,34,18.60
2018,08,09,05,35,18.60
2018,08,09,05,36,18.50
2018,08,09,05,37,18.40
2018,08,09,05,38,18.40
2018,08,09,05,39,18.40
2018,08,09,05,40,18.30
2018,08,09,05,41,18.30
2018,08,09,05,42,18.30
2018,08,09,05,43,18.30
2018,08,09,05,44,18.30
2018,08,09,05,45,18.20
2018,08,09,05,46,18.20
2018,08,09,05,47,18.20
2018,08,09,05,48,18.20
2018,08,09,05,49,18.10
2018,08,09,05,51,18.10
2018,08,09,05,52,18.00
2018,08,09,05,53,17.90
2018,08,09,05,54,17.80
2018,08,09,05,55,17.80
2018,08,09,05,56,17.70
2018,08,09,05,57,17.60
2018,08,09,05,58,17.50
2018,08,09,05,59,17.50
2018,08,09,06,00,17.50
2018,08,09,06,01,17.40
2018,08,09,06,02,17.40
2018,08,09,06,03,17.40
2018,08,09,06,04,17.30
2018,08,09,06,05,17.30
2018,08,09,06,06,17.30
2018,08,09,06,07,17.30
2018,08,09,06,08,17.20
2018,08,09,06,09,17.20
2018,08,09,06,10,17.20
2018,08,09,06,11,17.20
2018,08,09,06,12,17.20
2018,08,09,06,13,17.10
2018,08,09,06,14,17.10
2018,08,09,06,15,17.10
2018,08,09,06,16,17.10
2018,08,09,06,17,17.10
2018,08,09,06,18,17.10
2018,08,09,06,19,17.10
2018,08,09,06,20,17.00
2018,08,09,06,21,17.00
2018,08,09,06,22,17.00
2018,08,09,06,23,17.00
2018,08,09,06,24,16.90
2018,08,09,06,25,16.90
2018,08,09,06,26,16.90
2018,08,09,06,27,16.90
2018,08,09,06,28,16.90
2018,08,09,06,29,16.90
2018,08,09,06,30,16.90
2018,08,09,06,31,16.90
2018,08,09,06,32,16.90
2018,08,09,06,33,16.90
2018,08,09,06,34,17.00
2018,08,09,06,35,17.00
2018,08,09,06,36,17.10
2018,08,09,06,37,17.10
2018,08,09,06,38,17.10
2018,08,09,06,39,17.10
2018,08,09,06,40,17.20
2018,08,09,06,41,17.20
2018,08,09,06,42,17.20
2018,08,09,06,43,17.20
2018,08,09,06,44,17.20
2018,08,09,06,45,17.20
2018,08,09,06,46,17.20
2018,08,09,06,47,17.30
2018,08,09,06,48,17.30
2018,08,09,06,49,17.40
2018,08,09,06,50,17.40
2018,08,09,06,51,17.40
2018,08,09,06,52,17.50
2018,08,09,06,53,17.50
2018,08,09,06,54,17.60
2018,08,09,06,55,17.70
2018,08,09,06,56,17.70
2018,08,09,06,57,17.80
2018,08,09,06,58,17.90
2018,08,09,06,59,17.90
2018,08,09,07,00,18.00
2018,08,09,07,01,18.10
2018,08,09,07,02,18.10
2018,08,09,07,03,18.10
2018,08,09,07,04,18.20
2018,08,09,07,05,18.30
2018,08,09,07,06,18.40
2018,08,09,07,07,18.40
2018,08,09,07,08,18.50
2018,08,09,07,09,18.50
2018,08,09,07,10,18.60
2018,08,09,07,11,18.70
2018,08,09,07,12,18.70
2018,08,09,07,13,18.70
2018,08,09,07,14,18.70
2018,08,09,07,15,18.70
2018,08,09,07,16,18.80
2018,08,09,07,17,18.80
2018,08,09,07,18,18.80
2018,08,09,07,19,18.90
2018,08,09,07,20,18.90
2018,08,09,07,21,19.00
2018,08,09,07,22,19.10
2018,08,09,07,23,19.10
2018,08,09,07,24,19.20
2018,08,09,07,25,19.30
2018,08,09,07,26,19.40
2018,08,09,07,27,19.50
2018,08,09,07,28,19.60
2018,08,09,07,29,19.60
2018,08,09,07,30,19.70
2018,08,09,07,31,19.70
2018,08,09,07,32,19.80
2018,08,09,07,33,19.80
2018,08,09,07,34,19.80
2018,08,09,07,35,19.80
2018,08,09,07,36,19.90
2018,08,09,07,37,19.80
2018,08,09,07,38,19.80
2018,08,09,07,39,19.90
2018,08,09,07,40,19.90
2018,08,09,07,41,19.90
2018,08,09,07,42,19.90
2018,08,09,07,43,19.90
2018,08,09,07,44,19.90
2018,08,09,07,45,19.90
2018,08,09,07,46,19.90
2018,08,09,07,47,19.90
2018,08,09,07,48,19.80
2018,08,09,07,49,19.80
2018,08,09,07,50,19.80
2018,08,09,07,51,19.80
2018,08,09,07,52,19.90
2018,08,09,07,53,19.90
2018,08,09,07,54,20.00
2018,08,09,07,55,20.00
2018,08,09,07,56,20.10
2018,08,09,07,57,20.20
2018,08,09,07,58,20.30
2018,08,09,07,59,20.40
2018,08,09,08,00,20.50
2018,08,09,08,01,20.60
2018,08,09,08,02,20.70
2018,08,09,08,03,20.80
2018,08,09,08,04,20.90
2018,08,09,08,05,20.90
2018,08,09,08,06,21.00
2018,08,09,08,07,20.90
2018,08,09,08,08,20.90
2018,08,09,08,09,20.70
2018,08,09,08,10,20.60
2018,08,09,08,11,20.30
2018,08,09,08,12,20.10
2018,08,09,08,13,20.00
2018,08,09,08,14,19.90
2018,08,09,08,15,19.90
2018,08,09,08,16,19.90
2018,08,09,08,17,19.90
2018,08,09,08,18,19.90
2018,08,09,08,19,20.00
2018,08,09,08,20,20.10
2018,08,09,08,21,20.20
2018,08,09,08,22,20.40
2018,08,09,08,23,20.50
2018,08,09,08,24,20.70
2018,08,09,08,25,20.80
2018,08,09,08,26,21.00
2018,08,09,08,27,21.10
2018,08,09,08,28,21.30
2018,08,09,08,29,21.40
2018,08,09,08,30,21.50
2018,08,09,08,31,21.50
2018,08,09,08,32,21.60
2018,08,09,08,33,21.60
2018,08,09,08,34,21.70
2018,08,09,08,35,21.70
2018,08,09,08,36,21.80
2018,08,09,08,37,21.90
2018,08,09,08,38,22.00
2018,08,09,08,39,22.10
2018,08,09,08,40,22.20
2018,08,09,08,41,22.20
2018,08,09,08,42,22.10
2018,08,09,08,43,22.10
2018,08,09,08,44,22.10
2018,08,09,08,45,22.10
2018,08,09,08,46,22.20
2018,08,09,08,47,22.20
2018,08,09,08,48,22.30
2018,08,09,08,49,22.40
2018,08,09,08,50,22.50
2018,08,09,08,51,22.60
2018,08,09,08,52,22.60
2018,08,09,08,53,22.60
2018,08,09,08,54,22.50
2018,08,09,08,55,22.50
2018,08,09,08,56,22.50
2018,08,09,08,57,22.50
2018,08,09,08,58,22.50
2018,08,09,08,59,22.50
2018,08,09,09,00,22.50
2018,08,09,09,01,22.50
2018,08,09,09,02,22.40
2018,08,09,09,03,22.40
2018,08,09,09,04,22.30
2018,08,09,09,05,22.30
2018,08,09,09,06,22.40
2018,08,09,09,07,22.50
2018,08,09,09,08,22.60
2018,08,09,09,09,22.70
2018,08,09,09,10,22.80
2018,08,09,09,11,23.00
2018,08,09,09,12,23.00
2018,08,09,09,13,23.00
2018,08,09,09,14,23.10
2018,08,09,09,15,23.00
2018,08,09,09,16,23.00
2018,08,09,09,17,22.90
2018,08,09,09,18,22.90
2018,08,09,09,19,23.00
2018,08,09,09,20,23.00
2018,08,09,09,21,23.00
2018,08,09,09,22,22.90
2018,08,09,09,23,22.60
2018,08,09,09,24,22.40
2018,08,09,09,25,22.40
2018,08,09,09,26,22.50
2018,08,09,09,27,22.60
2018,08,09,09,28,22.60
2018,08,09,09,29,22.70
2018,08,09,09,30,22.60
2018,08,09,09,31,22.40
2018,08,09,09,32,22.40
2018,08,09,09,33,22.40
2018,08,09,09,34,22.40
2018,08,09,09,35,22.60
2018,08,09,09,36,22.70
2018,08,09,09,37,22.80
2018,08,09,09,38,23.00
2018,08,09,09,39,23.10
2018,08,09,09,40,23.20
2018,08,09,09,41,23.20
2018,08,09,09,42,23.10
2018,08,09,09,43,22.90
2018,08,09,09,44,22.70
2018,08,09,09,45,22.50
2018,08,09,09,46,22.10
2018,08,09,09,47,21.90
2018,08,09,09,48,21.90
2018,08,09,09,49,21.90
2018,08,09,09,50,21.90
2018,08,09,09,51,21.80
2018,08,09,09,52,21.70
2018,08,09,09,53,21.70
2018,08,09,09,54,21.70
2018,08,09,09,55,21.50
2018,08,09,09,56,21.30
2018,08,09,09,57,21.10
2018,08,09,09,58,20.70
2018,08,09,09,59,20.40
2018,08,09,10,00,20.20
2018,08,09,10,01,20.10
2018,08,09,10,02,20.20
2018,08,09,10,03,20.10
2018,08,09,10,04,20.00
2018,08,09,10,05,20.00
2018,08,09,10,06,20.10
2018,08,09,10,07,20.30
2018,08,09,10,08,20.50
2018,08,09,10,09,20.80
2018,08,09,10,10,21.00
2018,08,09,10,11,21.30
2018,08,09,10,12,21.50
2018,08,09,10,13,21.60
2018,08,09,10,14,21.80
2018,08,09,10,15,22.00
2018,08,09,10,16,22.20
2018,08,09,10,17,22.40
2018,08,09,10,18,22.50
2018,08,09,10,19,22.70
2018,08,09,10,20,22.80
2018,08,09,10,21,23.00
2018,08,09,10,22,23.20
2018,08,09,10,23,23.40
2018,08,09,10,24,23.50
2018,08,09,10,25,23.60
2018,08,09,10,26,23.60
2018,08,09,10,27,23.50
2018,08,09,10,28,23.40
2018,08,09,10,29,23.30
2018,08,09,10,30,23.30
2018,08,09,10,31,23.30
2018,08,09,10,32,23.30
2018,08,09,10,33,23.40
2018,08,09,10,34,23.50
2018,08,09,10,35,23.70
2018,08,09,10,36,23.80
2018,08,09,10,37,23.80
2018,08,09,10,38,23.70
2018,08,09,10,39,23.60
2018,08,09,10,40,23.60
2018,08,09,10,41,23.70
2018,08,09,10,42,23.80
2018,08,09,10,43,24.00
2018,08,09,10,44,24.10
2018,08,09,10,45,24.20
2018,08,09,10,46,24.30
2018,08,09,10,47,24.40
2018,08,09,10,48,24.30
2018,08,09,10,49,24.10
2018,08,09,10,50,24.00
2018,08,09,10,51,23.90
2018,08,09,10,52,23.90
2018,08,09,10,53,23.90
2018,08,09,10,54,23.90
2018,08,09,10,55,23.80
2018,08,09,10,56,23.80
2018,08,09,10,57,24.00
2018,08,09,10,58,24.30
2018,08,09,10,59,24.50
2018,08,09,11,00,24.70
2018,08,09,11,01,24.90
2018,08,09,11,02,25.10
2018,08,09,11,03,25.20
2018,08,09,11,04,25.20
2018,08,09,11,05,25.20
2018,08,09,11,06,25.30
2018,08,09,11,07,25.20
2018,08,09,11,08,25.10
2018,08,09,11,09,25.10
2018,08,09,11,10,25.10
2018,08,09,11,11,25.10
2018,08,09,11,12,25.00
2018,08,09,11,13,24.80
2018,08,09,11,14,24.70
2018,08,09,11,15,24.60
2018,08,09,11,16,24.50
2018,08,09,11,17,24.40
2018,08,09,11,18,24.30
2018,08,09,11,19,24.30
2018,08,09,11,20,24.30
2018,08,09,11,21,24.40
2018,08,09,11,22,24.50
2018,08,09,11,23,24.60
2018,08,09,11,24,24.70
2018,08,09,11,25,24.70
2018,08,09,11,26,24.70
2018,08,09,11,27,24.70
2018,08,09,11,28,24.50
2018,08,09,11,29,24.40
2018,08,09,11,30,24.40
2018,08,09,11,31,24.60
2018,08,09,11,32,24.80
2018,08,09,11,33,25.00
2018,08,09,11,34,25.30
2018,08,09,11,35,25.50
2018,08,09,11,36,25.70
2018,08,09,11,37,25.50
2018,08,09,11,38,25.20
2018,08,09,11,39,24.90
2018,08,09,11,40,24.80
2018,08,09,11,41,24.80
2018,08,09,11,42,24.80
2018,08,09,11,43,24.70
2018,08,09,11,44,24.70
2018,08,09,11,45,24.80
2018,08,09,11,46,24.80
2018,08,09,11,47,24.80
2018,08,09,11,48,24.90
2018,08,09,11,49,24.90
2018,08,09,11,50,24.90
2018,08,09,11,51,24.90
2018,08,09,11,52,25.00
2018,08,09,11,53,25.10
2018,08,09,11,54,25.10
2018,08,09,11,55,25.10
2018,08,09,11,56,25.10
2018,08,09,11,57,25.10
2018,08,09,11,58,25.00
2018,08,09,11,59,24.90
2018,08,09,12,00,24.90
2018,08,09,12,01,25.10
2018,08,09,12,02,25.10
2018,08,09,12,03,25.10
2018,08,09,12,04,25.00
2018,08,09,12,05,24.90
2018,08,09,12,06,24.90
2018,08,09,12,07,24.70
2018,08,09,12,08,24.70
2018,08,09,12,09,24.60
2018,08,09,12,10,24.30
2018,08,09,12,11,24.00
2018,08,09,12,12,24.00
2018,08,09,12,13,24.00
2018,08,09,12,14,24.00
2018,08,09,12,15,24.10
2018,08,09,12,16,24.20
2018,08,09,12,17,24.20
2018,08,09,12,18,24.20
2018,08,09,12,19,24.30
2018,08,09,12,20,24.40
2018,08,09,12,21,24.30
2018,08,09,12,22,24.20
2018,08,09,12,23,24.20
2018,08,09,12,24,24.10
2018,08,09,12,25,24.00
2018,08,09,12,26,24.00
2018,08,09,12,27,24.00
2018,08,09,12,28,24.10
2018,08,09,12,29,24.10
2018,08,09,12,30,24.30
2018,08,09,12,31,24.50
2018,08,09,12,32,24.60
2018,08,09,12,33,24.70
2018,08,09,12,34,24.60
2018,08,09,12,35,24.60
2018,08,09,12,36,24.70
2018,08,09,12,37,24.70
2018,08,09,12,38,24.70
2018,08,09,12,39,24.60
2018,08,09,12,40,24.60
2018,08,09,12,41,24.40
2018,08,09,12,42,24.50
2018,08,09,12,43,24.50
2018,08,09,12,44,24.60
2018,08,09,12,45,24.80
2018,08,09,12,46,24.90
2018,08,09,12,47,25.10
2018,08,09,12,48,25.30
2018,08,09,12,49,25.60
2018,08,09,12,50,25.70
2018,08,09,12,51,25.80
2018,08,09,12,52,25.90
2018,08,09,12,53,26.00
2018,08,09,12,54,26.20
2018,08,09,12,55,26.20
2018,08,09,12,56,26.20
2018,08,09,12,57,26.20
2018,08,09,12,58,26.20
2018,08,09,12,59,26.20
2018,08,09,13,00,26.20
2018,08,09,13,01,26.30
2018,08,09,13,02,26.40
2018,08,09,13,03,26.30
2018,08,09,13,04,26.40
2018,08,09,13,05,26.60
2018,08,09,13,06,26.70
2018,08,09,13,07,26.90
2018,08,09,13,08,27.00
2018,08,09,13,09,27.00
2018,08,09,13,10,27.10
2018,08,09,13,11,27.20
2018,08,09,13,12,27.10
2018,08,09,13,13,26.90
2018,08,09,13,14,26.70
2018,08,09,13,15,26.70
2018,08,09,13,16,26.70
2018,08,09,13,17,26.80
2018,08,09,13,18,26.80
2018,08,09,13,19,26.80
2018,08,09,13,20,26.80
2018,08,09,13,21,26.80
2018,08,09,13,22,26.80
2018,08,09,13,23,26.70
2018,08,09,13,24,26.70
2018,08,09,13,25,26.80
2018,08,09,13,26,26.80
2018,08,09,13,27,26.80
2018,08,09,13,28,26.80
2018,08,09,13,29,26.70
2018,08,09,13,30,26.70
2018,08,09,13,31,26.80
2018,08,09,13,32,26.90
2018,08,09,13,33,26.80
2018,08,09,13,34,26.80
2018,08,09,13,35,26.70
2018,08,09,13,36,26.60
2018,08,09,13,37,26.60
2018,08,09,13,38,26.70
2018,08,09,13,39,26.80
2018,08,09,13,40,27.00
2018,08,09,13,41,27.20
2018,08,09,13,42,27.30
2018,08,09,13,43,27.30
2018,08,09,13,44,27.30
2018,08,09,13,45,27.30
2018,08,09,13,46,27.20
2018,08,09,13,47,27.30
2018,08,09,13,48,27.30
2018,08,09,13,49,27.30
2018,08,09,13,50,27.30
2018,08,09,13,51,27.40
2018,08,09,13,52,27.40
2018,08,09,13,53,27.40
2018,08,09,13,54,27.50
2018,08,09,13,55,27.50
2018,08,09,13,56,27.10
2018,08,09,13,57,26.70
2018,08,09,13,58,26.60
2018,08,09,13,59,26.50
2018,08,09,14,00,26.30
2018,08,09,14,01,26.30
2018,08,09,14,02,26.40
2018,08,09,14,03,26.60
2018,08,09,14,04,26.90
2018,08,09,14,05,27.10
2018,08,09,14,06,27.40
2018,08,09,14,07,27.70
2018,08,09,14,08,28.00
2018,08,09,14,09,28.20
2018,08,09,14,10,28.30
2018,08,09,14,11,28.40
2018,08,09,14,12,28.50
2018,08,09,14,13,28.60
2018,08,09,14,14,28.80
2018,08,09,14,15,29.00
2018,08,09,14,16,29.00
2018,08,09,14,17,29.10
2018,08,09,14,18,29.20
2018,08,09,14,19,29.20
2018,08,09,14,20,29.20
2018,08,09,14,21,29.40
2018,08,09,14,22,29.50
2018,08,09,14,23,29.60
2018,08,09,14,24,29.60
2018,08,09,14,25,29.50
2018,08,09,14,26,29.50
2018,08,09,14,27,29.30
2018,08,09,14,28,28.90
2018,08,09,14,29,28.70
2018,08,09,14,30,28.60
2018,08,09,14,31,28.60
2018,08,09,14,32,28.70
2018,08,09,14,33,28.70
2018,08,09,14,34,28.80
2018,08,09,14,35,28.90
2018,08,09,14,36,29.00
2018,08,09,14,37,29.20
2018,08,09,14,38,29.30
2018,08,09,14,39,29.50
2018,08,09,14,40,29.70
2018,08,09,14,41,29.80
2018,08,09,14,42,30.00
2018,08,09,14,43,30.10
2018,08,09,14,44,30.20
2018,08,09,14,45,30.20
2018,08,09,14,46,30.20
2018,08,09,14,47,30.30
2018,08,09,14,48,30.30
2018,08,09,14,49,30.30
2018,08,09,14,50,30.30
2018,08,09,14,51,30.40
2018,08,09,14,52,30.60
2018,08,09,14,53,30.70
2018,08,09,14,54,30.80
2018,08,09,14,55,30.80
2018,08,09,14,56,30.80
2018,08,09,14,57,30.70
2018,08,09,14,58,30.60
2018,08,09,14,59,30.60
2018,08,09,15,00,30.70
2018,08,09,15,01,30.60
2018,08,09,15,02,30.70
2018,08,09,15,03,30.80
2018,08,09,15,04,30.80
2018,08,09,15,05,30.80
2018,08,09,15,06,30.70
2018,08,09,15,07,30.60
2018,08,09,15,08,30.60
2018,08,09,15,09,30.70
2018,08,09,15,10,30.80
2018,08,09,15,11,30.80
2018,08,09,15,12,30.80
2018,08,09,15,13,30.80
2018,08,09,15,14,30.90
2018,08,09,15,15,30.90
2018,08,09,15,16,30.90
2018,08,09,15,17,30.80
2018,08,09,15,18,30.80
2018,08,09,15,19,30.80
2018,08,09,15,20,30.90
2018,08,09,15,21,31.00
2018,08,09,15,22,31.10
2018,08,09,15,23,31.20
2018,08,09,15,24,31.30
2018,08,09,15,25,31.30
2018,08,09,15,26,31.30
2018,08,09,15,27,31.40
2018,08,09,15,28,31.50
2018,08,09,15,29,31.40
2018,08,09,15,30,31.30
2018,08,09,15,31,31.30
2018,08,09,15,32,31.30
2018,08,09,15,33,31.30
2018,08,09,15,34,31.40
2018,08,09,15,35,31.50
2018,08,09,15,36,31.50
2018,08,09,15,37,31.60
2018,08,09,15,38,31.70
2018,08,09,15,39,31.70
2018,08,09,15,40,31.70
2018,08,09,15,41,31.70
2018,08,09,15,42,31.60
2018,08,09,15,43,31.70
2018,08,09,15,44,31.80
2018,08,09,15,45,31.90
2018,08,09,15,46,31.90
2018,08,09,15,47,31.90
2018,08,09,15,48,32.00
2018,08,09,15,49,32.00
2018,08,09,15,50,32.10
2018,08,09,15,51,32.10
2018,08,09,15,52,32.10
2018,08,09,15,53,32.00
2018,08,09,15,54,32.00
2018,08,09,15,55,32.00
2018,08,09,15,56,31.90
2018,08,09,15,57,31.90
2018,08,09,15,58,31.90
2018,08,09,15,59,32.00
2018,08,09,16,00,32.10
2018,08,09,16,01,32.20
2018,08,09,16,02,32.30
2018,08,09,16,03,32.40
2018,08,09,16,04,32.50
2018,08,09,16,05,32.50
2018,08,09,16,06,32.40
2018,08,09,16,07,32.40
2018,08,09,16,08,32.50
2018,08,09,16,09,32.60
2018,08,09,16,10,32.70
2018,08,09,16,11,32.80
2018,08,09,16,12,32.80
2018,08,09,16,13,32.80
2018,08,09,16,14,32.70
2018,08,09,16,15,32.70
2018,08,09,16,16,32.80
2018,08,09,16,17,32.80
2018,08,09,16,18,32.90
2018,08,09,16,19,32.90
2018,08,09,16,20,32.90
2018,08,09,16,21,32.90
2018,08,09,16,22,32.90
2018,08,09,16,23,32.90
2018,08,09,16,24,32.80
2018,08,09,16,25,32.70
2018,08,09,16,26,32.50
2018,08,09,16,27,32.40
2018,08,09,16,28,32.40
2018,08,09,16,29,32.30
2018,08,09,16,30,32.30
2018,08,09,16,31,32.40
2018,08,09,16,32,32.40
2018,08,09,16,33,32.30
2018,08,09,16,34,32.20
2018,08,09,16,35,32.10
2018,08,09,16,36,32.10
2018,08,09,16,37,32.20
2018,08,09,16,38,32.20
2018,08,09,16,39,32.20
2018,08,09,16,40,32.20
2018,08,09,16,41,32.30
2018,08,09,16,42,32.30
2018,08,09,16,43,32.40
2018,08,09,16,44,32.40
2018,08,09,16,45,32.40
2018,08,09,16,46,32.40
2018,08,09,16,47,32.40
2018,08,09,16,48,32.30
2018,08,09,16,49,32.30
2018,08,09,16,50,32.30
2018,08,09,16,51,32.30
2018,08,09,16,52,32.30
2018,08,09,16,53,32.30
2018,08,09,16,54,32.30
2018,08,09,16,55,32.40
2018,08,09,16,56,32.40
2018,08,09,16,57,32.50
2018,08,09,16,58,32.50
2018,08,09,16,59,32.40
2018,08,09,17,00,32.40
2018,08,09,17,01,32.20
2018,08,09,17,02,32.30
2018,08,09,17,03,32.40
2018,08,09,17,04,32.40
2018,08,09,17,05,32.20
2018,08,09,17,06,32.10
2018,08,09,17,07,32.10
2018,08,09,17,08,32.10
2018,08,09,17,09,32.10
2018,08,09,17,10,32.10
2018,08,09,17,11,32.10
2018,08,09,17,12,32.00
2018,08,09,17,13,32.00
2018,08,09,17,14,32.00
2018,08,09,17,15,32.00
2018,08,09,17,16,32.00
2018,08,09,17,17,32.10
2018,08,09,17,18,32.10
2018,08,09,17,19,32.20
2018,08,09,17,20,32.20